Flag for Switzerland Weather past 2 weeks in Sion, Valais, Switzerland

Now
38 °F

Chilly.


Feels Like: 38 °F
Forecast: 39 / 60 °F
Wind: 1 mph from Northeast

Location: Sion


UV Index: 3 (Moderate)

Visibility: N/A


Pressure: 30.24 "Hg

Humidity: 77%

Dew point: 31 °F

Location of SionLocation

Historic Weather in Sion

°F

Sion temperature yesterday

Maximum temperature yesterday: 63 °F (at 5:00 PM)
Minimum temperature yesterday: 37 °F (at 5:00 AM)
Average temperature yesterday: 50 °F

Past Weeks' High & Low Weather Summary

 TemperatureHumidityPressure
High75 °F (Apr 11, 5:00 PM)94% (Apr 8, 10:00 AM)30.31 "Hg (Apr 8, 10:00 AM)
Low37 °F (Apr 16, 5:00 AM)18% (Apr 15, 4:00 PM)29.57 "Hg (Apr 4, 5:00 PM)
Average57 °F54%30.00 "Hg
* Reported Apr 2 5:00 AM — Apr 17 5:00 AM, Sion, Weather by CustomWeather, © 2014

Note: Actual official high and low records may vary slightly from our data, if they occured in-between our weather recording intervals... More about our weather records

Advertising

Historic Weather Conditions — Data for Previous 24 hours

 ConditionsComfort  
Time TempWeatherWind HumidityBarometerVisibility
5:00 AM
Apr 17
39 °FClear.2 mph85%30.24 "Hg12 mi
4:00 AM39 °FChilly.1 mph84%30.24 "HgN/A
3:00 AM39 °FChilly.1 mph80%30.24 "HgN/A
2:00 AM41 °FClear.1 mph74%30.24 "Hg12 mi
1:00 AM44 °FQuite cool.1 mph63%30.23 "HgN/A
12:00 AM45 °FCool.1 mph67%30.21 "HgN/A
11:00 PM
Apr 16
49 °FClear.3 mph49%30.18 "Hg12 mi
10:00 PM53 °FCool.9 mph42%30.15 "HgN/A
9:00 PM54 °FCool.9 mph40%30.12 "HgN/A
8:00 PM56 °FSunny.10 mph37%30.09 "Hg12 mi
7:00 PM59 °FRefreshingly cool.17 mph34%30.06 "HgN/A
6:00 PM62 °FRefreshingly cool.20 mph30%30.04 "HgN/A
5:00 PM63 °FSunny.17 mph28%30.04 "Hg16 mi
4:00 PM61 °FRefreshingly cool.15 mph28%30.06 "HgN/A
3:00 PM59 °FRefreshingly cool.17 mph29%30.08 "HgN/A
2:00 PM57 °FPassing clouds.15 mph33%30.10 "Hg19 mi
1:00 PM54 °FCool.9 mph36%30.13 "HgN/A
12:00 PM51 °FCool.6 mph38%30.16 "HgN/A
11:00 AM48 °FSunny.5 mph46%30.18 "Hg19 mi
10:00 AM45 °FCool.3 mph50%30.20 "HgN/A
9:00 AM44 °FQuite cool.2 mph55%30.21 "HgN/A
8:00 AM40 °FSunny.3 mph59%30.21 "Hg19 mi
7:00 AM39 °FChilly.1 mph59%30.19 "HgN/A
Weather by CustomWeather, © 2014

See weather overview